Regional Weather Roundup
Issued by NWS Sioux Falls, SD

Home | Current Version | Previous Version | Graphics & Text | Print | Product List | Glossary On
Versions: 1 2 3 4 5 6 7 8 9 10 11 12 13 14 15 16 17 18 19 20 21 22 23 24 25 26 27 28 29 30 31 32 33 34 35 36 37 38 39 40 41 42 43 44 45 46 47 48 49 50
470
ASUS43 KFSD 251010
RWRFSD

WEATHER ROUNDUP FOR SE SOUTH DAKOTA/SW MINNESOTA/NW IOWA
NATIONAL WEATHER SERVICE SIOUX FALLS SD
400 AM CST SAT FEB 25 2017

NOTE: "FAIR" INDICATES FEW OR NO CLOUDS BELOW 12,000 FEET WITH NO
SIGNIFICANT WEATHER AND OR OBSTRUCTIONS TO VISIBILITY.


SDZ038>040-050-052>070-251100-
SOUTHEAST SOUTH DAKOTA

CITY           SKY/WX    TMP DP  RH WIND       PRES   REMARKS
BROOKINGS      CLEAR     14  11  87 W5        30.02F WCI   6
CHAMBERLAIN    CLOUDY    20  17  87 SW3       30.07F
HURON          MOCLDY    15  13  91 CALM      30.07F
MADISON        FAIR      14  14 100 NW8       30.03F WCI   3
MITCHELL       CLEAR     17  13  84 W7        30.09F WCI   8
SIOUX FALLS    CLEAR     15  13  91 NW12      30.04F WCI   2
WINNER         CLOUDY    17  10  74 S3        30.05F
YANKTON        CLOUDY    12   7  79 NW9       30.08F WCI   0
$$

MNZ071-072-080-081-089-090-097-098-251100-
SOUTHWEST MINNESOTA

CITY           SKY/WX    TMP DP  RH WIND       PRES   REMARKS
FAIRMONT       CLEAR     14   8  77 NW18      29.96S WCI  -3
JACKSON        CLEAR     14   7  73 NW18      29.97S WCI  -3
LUVERNE        CLEAR     18  12  79 NW8       30.03F WCI   7
MARSHALL       CLEAR     16  13  88 NW15      30.02S WCI   1
MONTEVIDEO     CLEAR     16  10  79 N9        30.03S WCI   4
PIPESTONE      CLEAR     18  10  73 NW9       30.00F WCI   6
REDWOOD FALLS  CLEAR     17   5  59 NW13      29.99S WCI   4
TRACY          CLEAR     18  13  82 NW15      30.01S WCI   3
WINDOM         CLEAR     16   7  67 NW16G24   29.97S WCI   0
WORTHINGTON    CLEAR     15   9  76 NW16      30.00S WCI  -1
$$

IAZ001>003-012>014-020>022-031-032-NEZ013-014-SDZ071-251100-
NORTHWEST IOWA

CITY           SKY/WX    TMP DP  RH WIND       PRES   REMARKS
CHEROKEE       CLEAR     17  13  84 NW12G18   30.03S WCI   4
DENISON        CLEAR     16  12  86 NW13      30.02S WCI   2
ESTHERVILLE    CLEAR     13   8  81 NW21      29.97R WCI  -5
LE MARS        PTCLDY    16  12  86 NW9       30.07S WCI   4
SHELDON        CLEAR     16  16 100 NW14      30.01S WCI   1
SIOUX CITY     CLEAR     21  14  74 NW15      30.07F WCI   8
SPENCER        CLEAR     14   8  77 NW12      30.00S WCI   0
STORM LAKE     CLEAR     14  10  85 NW17      29.99F WCI  -3
$$

ABBREVIATIONS USED IN REMARKS
   TC - TEMPERATURE IN CELSIUS
  WCI - WIND CHILL INDEX
   HX - HEAT INDEX
  VSB - VISIBILITY





USA.gov is the U.S. government's official web portal to all federal, state and local government web resources and services.